Weather observations for the past three days for
Farmingdale - Republic Airport
Imperial (Metric)
Date Time (edt) Wind (mph) Vis. (mi.) Weather Sky Cond. Temperature (ºF) Relative Humidity Wind Chill (°F) Heat Index (°F) Pressure Precipitation (in)
Air Dwpt 6 hour altimeter (in) sea level (mb) 1 hr 3 hr 6 hr
Max. Min.
14 04:53 SW 9 10.00 A Few Clouds FEW055 68 63 84% 29.92 1012.9
14 03:53 SW 10 10.00 Fair CLR 68 63 84% 29.91 1012.9
14 02:53 SW 12 10.00 Fair CLR 69.1 63 81% 29.92 1013.2
14 01:53 SW 12 10.00 Fair CLR 69.1 62.1 73 69.1 78% 29.94 1013.6
14 00:53 SW 12 10.00 Fair CLR 69.1 62.1 78% 29.95 1014.2
13 23:53 SW 12 10.00 Fair CLR 69.1 62.1 78% 29.98 1015.1
13 22:53 SW 13 10.00 Fair CLR 70 62.1 76% 29.98 1015.0
13 21:53 SW 14 G 22 10.00 Fair CLR 71.1 60.1 68% 29.99 1015.3
13 20:53 SW 13 G 22 10.00 Fair CLR 71.1 60.1 68% 29.98 1015.3
13 19:53 SW 14 G 25 10.00 Fair CLR 73 60.1 82 73 64% 29.99 1015.4
13 18:53 S 16 G 28 10.00 Fair CLR 73.9 60.1 62% 29.98 1015.2
13 17:53 S 16 10.00 Fair CLR 77 61 58% 79 29.98 1015.0
13 16:53 S 16 10.00 Fair CLR 79 63 58% 81 29.98 1015.2
13 15:53 SW 20 10.00 Fair CLR 79 62.1 56% 80 29.99 1015.5
13 14:53 S 17 10.00 Fair CLR 81 62.1 53% 82 30 1015.9
13 13:53 SW 15 10.00 Fair CLR 80.1 62.1 80.1 70 54% 81 30.01 1016.1
13 12:53 SW 12 G 22 10.00 Fair CLR 80.1 61 52% 81 30.01 1016.3
13 11:53 SW 13 10.00 Fair CLR 78.1 62.1 58% 80 30.02 1016.5
13 10:53 S 8 10.00 Fair CLR 75.9 63 64% 78 30.03 1016.7
13 09:53 Vrbl 3 10.00 Fair CLR 75.9 62.1 62% 78 30.03 1016.8
13 08:53 SW 8 10.00 Fair CLR 75 60.1 60% 77 30.03 1016.9
13 07:53 SW 6 10.00 Fair CLR 70 61 70 60.1 73% 30.02 1016.6
13 06:53 SW 3 10.00 Fair CLR 66 61 84% 30.03 1016.7
13 05:53 Calm 9.00 Fair CLR 62.1 59 90% 30.02 1016.6
13 04:53 Calm 9.00 Fair CLR 62.1 59 90% 30.01 1016.0
13 03:53 Calm 9.00 Fair CLR 61 57.9 90% 30 1015.8
13 02:53 Calm 10.00 Fair CLR 61 57.9 90% 30.01 1016.0
13 01:53 Calm 10.00 Fair CLR 64.9 61 70 64.9 87% 30.01 1016.1
13 00:53 SW 3 10.00 Fair CLR 66 61 84% 30.02 1016.5
12 23:53 Calm 10.00 Fair CLR 66 61 84% 30.02 1016.6
12 22:53 SW 5 10.00 Fair CLR 66.9 60.1 79% 30.03 1016.8
12 21:53 Calm 10.00 Fair CLR 66.9 60.1 79% 30.03 1016.7
12 20:53 SW 7 10.00 Fair CLR 68 60.1 76% 30.01 1016.2
12 19:53 SW 8 10.00 Overcast OVC065 70 57 75.9 69.1 64% 30.01 1016.0
12 18:53 SW 9 10.00 Overcast OVC065 70 57.9 66% 30 1015.9
12 17:53 S 13 10.00 Overcast OVC065 70 57.9 66% 30 1015.7
12 16:53 S 13 10.00 Mostly Cloudy BKN065 72 57.9 61% 30 1015.7
12 15:53 SW 10 10.00 Overcast OVC065 73.9 57 56% 30 1015.8
12 14:53 SW 8 10.00 Overcast OVC050 73.9 57.9 57% 30 1015.7
12 13:53 Calm 10.00 Overcast OVC055 75 53.1 75 68 46% 78 30.01 1016.0
12 12:53 Calm 10.00 Overcast OVC055 73.9 54 50% 30.02 1016.5
12 11:53 Vrbl 5 10.00 Overcast OVC055 73 52 48% 30.03 1016.9
12 10:53 Calm 10.00 A Few Clouds FEW047 73 53.1 50% 30.04 1017.0
12 09:53 Vrbl 5 10.00 Fair CLR 72 53.1 52% 30.04 1017.1
12 07:53 N 7 10.00 Fair CLR 68 54 68 62.1 61% 30.03 1016.9
12 06:53 N 5 10.00 Fair CLR 64 54 70% 30.03 1016.7
12 05:53 NW 6 10.00 Mostly Cloudy BKN060 63 54 73% 30.02 1016.5
12 04:53 N 6 10.00 Partly Cloudy SCT050 63 54 73% 30.01 1016.1
12 03:53 Calm 10.00 Mostly Cloudy BKN055 64 54 70% 30 1015.8
12 02:53 N 5 10.00 Overcast SCT045 BKN075 OVC095 64.9 55 70% 30 1015.8
12 01:53 N 6 10.00 Light Rain OVC043 66 55.9 68 66 70% 30 1015.8
12 00:53 N 5 10.00 Overcast OVC045 66 55 68% 30 1015.8
11 23:53 N 3 10.00 Overcast OVC055 66.9 55.9 68% 30 1015.8
11 22:53 W 3 10.00 Overcast BKN044 OVC060 66.9 57.9 73% 29.98 1015.3
11 21:53 Calm 10.00 Overcast OVC047 66.9 57 71% 29.98 1015.0
11 20:53 SW 5 10.00 Overcast OVC070 66 57 73% 29.96 1014.4
11 19:53 SW 7 10.00 Overcast OVC065 68 57 75 68 68% 29.95 1014.1
11 18:53 SW 9 10.00 Mostly Cloudy SCT060 BKN080 BKN095 68 57 68% 29.93 1013.5
11 17:53 S 6 10.00 Mostly Cloudy BKN095 72 55.9 57% 29.92 1013.0
11 16:53 SW 7 10.00 Overcast BKN046 OVC080 71.1 55 57% 29.93 1013.3
11 15:53 N 7 10.00 Overcast BKN045 OVC065 72 54 53% 29.93 1013.3
11 14:53 Calm 10.00 Mostly Cloudy SCT047 BKN060 72 55 55% 29.92 1013.1
11 13:53 S 10 10.00 Overcast OVC060 72 54 73.9 62.1 53% 29.92 1013.1
11 12:53 Calm 10.00 Mostly Cloudy BKN055 72 53.1 52% 29.92 1013.2
11 11:53 Vrbl 5 10.00 A Few Clouds FEW042 71.1 53.1 53% 29.92 1013.2
11 10:53 W 5 10.00 Fair CLR 69.1 53.1 57% 29.93 1013.5
11 09:53 NE 7 10.00 Fair CLR 68 53.1 59% 29.93 1013.3
11 08:53 NE 6 10.00 Fair CLR 63 52 68% 29.93 1013.3
11 07:53 N 12 10.00 Fair CLR 63 52 64 60.1 68% 29.91 1012.7
11 06:53 N 8 10.00 Fair CLR 63 54 73% 29.89 1012.2
11 05:53 N 5 10.00 Fair CLR 60.1 52 75% 29.88 1011.7
Date Time (edt) Wind (mph) Vis. (mi.) Weather Sky Cond. Air Dwpt Max. Min. Relative Humidity Wind Chill (°F) Heat Index (°F) altimeter (in) sea level (mb) 1 hr 3 hr 6 hr
6 hour
Temperature (ºF) Pressure Precipitation (in)